Regional Weather Roundup
Issued by NWS

Home | Current Version | Previous Version | Text Only | Print | Product List | Glossary Off
Versions: 1 2 3 4 5 6 7 8 9 10 11 12 13 14 15 16 17 18 19 20 21 22 23 24 25 26 27 28 29 30 31 32 33 34 35 36 37 38 39 40 41 42 43 44 45 46 47 48 49 50

000
ASUS43 KFSD 060810
RWRSD

WEATHER ROUNDUP FOR SOUTH DAKOTA
NATIONAL WEATHER SERVICE SIOUX FALLS SD
300 AM CDT WED MAY 06 2015

NOTE: "FAIR" INDICATES FEW OR NO CLOUDS BELOW 12,000 FEET WITH NO
SIGNIFICANT WEATHER AND/OR OBSTRUCTIONS TO VISIBILITY.


SDZ001>005-009-010-012>017-060900-
NORTHWEST AND NORTH CENTRAL SOUTH DAKOTA

CITY           SKY/WX    TMP DP  RH WIND       PRES   REMARKS
BUFFALO          N/A     57  52  83 SE23G29   29.68F
FAITH            N/A     57  54  89 SE14      29.80F
MOBRIDGE       CLOUDY    60  58  92 SE12      29.82F FOG
$$

SDZ012>016-024>037-041>051-057-063-072>074-060900-
SOUTHWEST AND SOUTH CENTRAL SOUTH DAKOTA

CITY           SKY/WX    TMP DP  RH WIND       PRES   REMARKS
RAPID CTY ARPT LGT RAIN  53  52  96 SE7       29.78F
PIERRE         CLOUDY    58  57  97 E6        29.81F FOG
CUSTER         CLOUDY    48  46  93 CALM      29.81F FOG
ELLSWORTH AFB  CLOUDY    54  53  95 SE10      29.78F
PHILIP         CLOUDY    57  55  93 E6        29.79F
PINE RIDGE     LGT RAIN  54  51  90 SE7       29.76F
SPEARFISH      LGT RAIN  54  48  82 SE7       29.76F
WINNER         CLOUDY    60  54  80 SE15      29.81F
$$

SDZ004>011-016>023-039-040-060900-
NORTHEAST SOUTH DAKOTA

CITY           SKY/WX    TMP DP  RH WIND       PRES   REMARKS
ABERDEEN       CLOUDY    60  57  89 SE12      29.89F
WATERTOWN      CLOUDY    58  56  93 SE9       29.95F FOG
BROOKINGS      CLOUDY    57  57 100 SE15      29.95F
SISSETON         N/A     56  55  97 S21       29.95F
$$

SDZ017-020-022-023-036>040-048>070-060900-
SOUTHEAST SOUTH DAKOTA

CITY           SKY/WX    TMP DP  RH WIND       PRES   REMARKS
SIOUX FALLS    CLOUDY    62  59  90 SE12      29.93F
HURON          MOCLDY    61  58  90 SE10      29.88F FOG
CHAMBERLAIN    CLOUDY    59  57  92 SE10      29.84F
MITCHELL       LGT RAIN  63  60  90 SE14      29.88F
YANKTON        CLOUDY    64  57  77 SE8       29.88F
$$

ABBREVIATIONS USED IN REMARKS
   TC - TEMPERATURE IN CELSIUS
  WCI - WIND CHILL INDEX
   HX - HEAT INDEX
  VSB - VISIBILITY



USA.gov is the U.S. government's official web portal to all federal, state and local government web resources and services.